Weather in Vrsac

Serbia     45°07′03″N   21°17′36″E
temp.,
°C
wind,
m/s
gust,
m/s
humid.,
%
clouds,
%
prec.,
mm/h
press.,
hPa
HPBL,
m
20 june, sun
sun2023:00+19se348018 0.1 101370
02:00+16se348910 0.1 101367
05:00+17se23880 0.0 101375
08:00+21se23740 0.0 1013370
11:00+26nnw01560 0.0 10131106
14:00+28nnw23440 0.0 10121971
17:00+29nnw34410 0.0 10112122
20:00+24w11594 0.0 101011
21 june, mon
mon2123:00+21sse12680 0.0 101011
02:00+18sse22750 0.0 101017
05:00+17sse22830 0.0 101029
08:00+23sse33663 0.0 1010302
11:00+28s325062 0.0 1010890
14:00+31ssw2241100 0.0 10081415
17:00+31nne124194 0.0 10071307
20:00+26se33603 0.0 100834
22 june, tue
tue2223:00+21s5118379 0.9 1009204
02:00+19sse41087100 1.0 1009197
05:00+18s498941 0.0 1009171
08:00+23s57704 0.0 1011357
11:00+29s44490 0.0 1011713
14:00+33sw34370 0.0 10101463
17:00+34w25340 0.0 10092290
20:00+28wnw22530 0.0 101011
23 june, wed
wed2323:00+24s47620 0.0 1012108
02:00+21s37740 0.0 1012107
05:00+20sse35750 0.0 101277
08:00+25s45600 0.0 1014294
11:00+31ssw22480 0.0 1014686
14:00+35wnw24350 0.0 10142243
17:00+35wnw45290 0.0 10132535
20:00+29nw22470 0.0 101414
24 june, thu
thu2423:00+24n11570 0.0 101511
02:00+22sse11630 0.0 101611
05:00+21sse22710 0.0 101612
08:00+27sse22560 0.0 1016202
11:00+33e11382 0.0 1015756
14:00+37nnw12290 0.0 10141667
17:00+37nnw13263 0.0 10132024
20:00+30sse2345100 0.0 101318